#timestamp,LO_Frequency,Hit,StdDev 
1704891615.3,286046998.8,N
1704891635.1,286046999.4,N
1704891655.9,286046998.6,N
1704891675.7,286047000.8,N
1704891695.5,286047000.7,N
1704891715.4,286046999.3,N
1704891735.2,286046998.1,N
1704891755.0,286046998.4,N
1704891755.9,286046998.4,N
1704891775.8,286046998.9,N
1704891795.6,286046998.9,N
1704891815.5,286046999.3,N
1704891835.3,286046998.7,N
1704891855.1,286046999.2,N
1704891875.9,286046996.6,Y
1704891895.7,286046998.3,P
1704891915.5,286047001.2,N
1704891935.4,286047001.1,N
1704891955.2,286046999.4,N
1704891975.1,286046997.2,N
1704891976.0,286046997.2,N
1704891995.8,286046999.1,N
1704892015.6,286046999.2,N
1704892035.5,286046999.1,N
1704892055.3,286046998.9,N
1704892075.1,286046999.4,N
1704892095.9,286046998.4,N
1704892115.7,286047001.1,N
1704892135.6,286046998.7,N
1704892155.4,286046999.0,N
1704892175.2,286046998.5,N
1704892195.1,286046998.6,N
1704892196.0,286046998.6,N
1704892215.8,286046996.9,N
1704892235.6,286046996.8,N
1704892255.5,286046999.2,N
1704892275.3,286046996.6,N
1704892295.2,286046996.9,N
1704892315.9,286046997.2,N
1704892335.7,286046997.7,N
1704892355.6,286046996.6,N
1704892375.4,286046999.1,N
1704892395.2,286046999.5,N
1704892415.1,286046997.0,N
1704892416.0,286046997.0,N
1704892435.8,286046996.7,N
1704892455.7,286046998.9,N
1704892475.5,286046999.6,N
1704892495.3,286046999.1,N
1704892515.2,286046999.4,N
1704892535.0,286046998.1,N
1704892535.9,286046998.1,N
1704892555.8,286047001.1,N
1704892575.6,286047000.5,N
1704892595.4,286047000.5,N
1704892615.3,286047000.6,N
1704892635.1,286046998.6,N
1704892655.8,286046999.4,N
1704892675.7,286046996.7,N
1704892695.5,286046996.5,N
1704892715.4,286046997.2,N
1704892735.2,286046997.8,N
1704892755.0,286046996.7,N
1704892755.9,286046996.7,N
1704892775.8,286046996.9,N
1704892795.6,286046997.0,N
1704892815.4,286046998.7,N
1704892835.3,286046998.9,N
1704892855.1,286046998.9,N
1704892875.9,286046998.1,N
1704892895.7,286046998.7,N
1704892915.5,286047000.7,N
1704892935.4,286046998.7,N
1704892955.2,286046996.5,N
1704892975.1,286046999.1,N
1704892976.0,286046999.1,N
1704892995.8,286046998.3,N
1704893015.6,286047000.8,N
1704893035.5,286046998.7,N
1704893055.3,286046998.2,N
1704893075.1,286046998.6,N
1704893095.9,286047001.1,N
1704893115.7,286047001.2,N
1704893135.6,286047001.1,N
1704893155.4,286047000.2,N
1704893175.2,286047000.0,N
1704893195.1,286047000.6,N
1704893196.0,286047000.6,N
1704893215.8,286046999.9,N
1704893235.7,286046999.9,N
1704893255.5,286046999.7,N
1704893275.3,286047002.3,N
1704893295.2,286047002.3,N
1704893315.0,286047000.5,N
1704893315.9,286047000.5,N
1704893335.7,286046998.6,N
1704893355.6,286046998.3,N
1704893375.4,286046998.8,N
1704893395.3,286046999.2,N
1704893415.1,286046998.4,N
1704893435.8,286046998.9,N
1704893455.7,286046998.3,N
1704893475.5,286047001.1,N
1704893495.4,286047000.5,N
1704893515.2,286047000.7,N
1704893535.0,286047001.1,N
1704893535.9,286047001.1,N
1704893555.8,286047001.2,N
1704893575.6,286046998.1,N
1704893595.4,286046998.4,N
1704893615.3,286047001.2,N
1704893635.1,286047002.2,N
1704893655.9,286046999.7,N
1704893675.7,286047002.7,N
1704893695.5,286047001.6,N
1704893715.4,286047001.6,N
1704893735.2,286047002.5,N
1704893755.0,286047002.4,N
1704893755.9,286047002.4,N
1704893775.8,286047000.2,N
1704893795.6,286047001.0,N
1704893815.5,286047000.9,N
1704893835.3,286047000.1,N
1704893855.1,286047000.0,N
1704893875.9,286047002.1,N
1704893895.7,286046999.9,N
1704893915.5,286047000.4,N
1704893935.4,286047000.5,N
1704893955.2,286047000.6,N
1704893975.1,286047000.5,N
1704893976.0,286047000.5,N
1704893995.8,286047000.7,N
1704894015.6,286047000.8,N
1704894035.5,286047001.1,N
1704894055.3,286046999.4,N
1704894075.2,286046999.1,N
1704894095.9,286046998.2,N
1704894115.7,286046999.0,N
1704894135.6,286046999.5,N
1704894155.4,286046998.9,N
1704894175.2,286046999.4,N
1704894195.1,286046999.3,N
1704894196.0,286046999.3,N
1704894215.8,286046997.0,N
1704894235.7,286046996.5,N
1704894255.5,286046999.4,N
1704894275.3,286046997.1,N
1704894295.2,286046999.3,N
1704894315.0,286046999.1,N
1704894315.9,286046999.1,N
1704894335.7,286046999.1,N
1704894355.6,286046998.5,N
1704894375.4,286046999.3,N
1704894395.3,286046998.4,N
1704894415.1,286046998.5,N
1704894416.0,286046998.5,N
1704894435.8,286047001.1,N
1704894455.7,286047000.8,N
1704894475.5,286047000.5,N
1704894495.4,286046996.5,Y
1704894515.2,286046999.4,P
1704894535.0,286046998.4,P
1704894535.9,286046998.4,P
1704894555.8,286047001.2,N
1704894575.6,286047000.8,N
1704894595.4,286046998.4,N
1704894615.3,286046998.3,N
1704894635.1,286047001.0,N
1704894655.9,286047000.1,N
1704894675.7,286046999.8,N
1704894695.5,286047000.1,N
1704894715.4,286047000.4,N
1704894735.2,286047000.1,N
1704894755.1,286047001.9,N
1704894756.0,286047001.9,N
1704894775.8,286047001.6,N
1704894795.6,286047001.8,N
1704894815.5,286047002.6,N
1704894835.3,286047002.4,N
1704894855.2,286046999.9,N
1704894875.9,286047002.5,N
1704894895.7,286047001.6,N
1704894915.6,286047001.6,N
1704894935.9,286047002.4,N
1704894955.7,286047002.6,N
1704894975.5,286047002.6,N
1704894995.4,286047000.1,N
1704895015.2,286047002.0,N
1704895035.1,286046999.7,N
1704895036.0,286046999.7,N
1704895055.8,286047002.4,N
1704895075.6,286047001.9,N
1704895095.5,286047000.3,N
1704895115.3,286047000.1,N
1704895135.2,286046998.5,N
1704895155.9,286047000.5,N
1704895175.7,286046999.8,N
1704895195.6,286047000.8,N
